RH
6 6 6 6 6 6 6 6 6 5 5 5 5 5 4 4 4 4 4 4 4 4 4 4 3 3 3 3 3 3 3 3 2 2 2 2 2 2 2 2 2 2 2 2 2 2 2 2 2 2 2 2 2 3 3 3 3 3 3 3 3 4 4 4 4 4 4 4 5 6 6 7 8 8 8 9 10 9 8 8 8 9 10 12 14 16 22 32 44 54 60 60 60 62 66 70 72 72 70 66 63 62 64
6 6 6 6 6 6 6 6 5 5 5 5 5 4 4 4 4 4 4 4 4 4 3 3 3 3 3 3 3 2 2 2 2 2 2 2 2 2 2 2 2 2 2 2 2 2 2 2 2 2 2 2 2 2 2 2 3 3 3 3 3 3 3 3 4 4 4 4 4 5 5 6 6 7 8 8 9 10 10 9 8 8 8 10 11 13 16 22 32 44 55 59 60 60 62 67 70 72 72 70 66 62 62
6 6 6 6 6 6 6 5 5 5 5 5 4 4 4 4 4 4 4 3 3 3 3 3 3 3 2 2 2 2 2 2 2 2 2 2 2 2 2 2 2 2 2 2 2 2 2 2 2 2 2 2 2 2 2 2 2 2 3 3 3 3 3 3 3 3 4 4 4 4 4 5 5 6 7 8 8 8 10 10 9 8 8 9 10 11 13 16 23 32 45 55 59 60 60 63 67 70 72 72 69 66 62
6 6 6 6 6 5 5 5 5 5 4 4 4 4 4 4 3 3 3 3 3 3 2 2 2 2 2 2 2 2 2 2 2 2 2 2 2 2 2 2 2 2 2 2 2 2 2 2 2 2 2 2 2 2 2 2 2 2 2 2 2 3 3 3 3 3 3 3 4 4 4 4 5 5 6 6 7 8 8 9 10 9 8 8 9 10 11 13 16 23 33 46 55 60 60 60 63 67 71 72 71 69 66
6 6 6 5 5 5 5 5 4 4 4 4 4 4 3 3 3 3 3 2 2 2 2 2 2 2 2 2 2 2 2 2 2 2 2 2 2 2 2 2 2 2 2 2 2 2 2 2 2 2 2 2 2 2 2 2 2 2 2 2 2 2 2 3 3 3 3 3 3 3 4 4 4 4 5 5 6 7 8 8 9 10 10 8 8 9 10 11 13 16 22 34 46 56 61 60 61 64 68 70 72 71 69
6 6 5 5 5 5 4 4 4 4 4 4 3 3 3 3 3 2 2 2 2 2 2 2 2 2 2 2 2 2 2 2 2 2 2 2 2 2 2 2 2 2 2 2 2 2 2 2 2 2 2 2 2 2 2 2 2 2 2 2 2 2 2 2 2 2 3 3 3 3 3 4 4 4 4 5 5 6 7 8 8 9 10 10 9 8 9 10 11 13 16 24 35 48 58 61 61 62 64 68 70 72 72
5 5 5 5 5 4 4 4 4 4 3 3 3 3 3 2 2 2 2 2 2 2 2 2 2 2 2 2 2 2 2 2 2 2 2 2 2 2 2 2 2 2 2 2 2 2 2 2 2 2 2 2 2 2 2 2 2 2 2 2 2 2 2 2 2 2 2 3 3 3 3 3 3 4 4 4 4 5 6 6 7 8 9 10 10 9 8 10 10 11 13 17 24 36 50 58 62 62 62 65 68 70 72
5 5 5 4 4 4 4 4 4 3 3 3 3 3 2 2 2 2 2 2 2 2 2 2 2 2 2 2 2 2 2 2 2 2 2 2 2 2 2 2 2 2 2 2 2 2 2 2 2 2 2 1 1 1 1 1 1 2 2 2 2 2 2 2 2 2 2 2 2 2 3 3 3 3 3 4 4 4 5 5 6 7 8 8 9 10 9 9 10 10 11 13 18 26 38 51 59 63 62 63 65 68 71
5 5 4 4 4 4 4 4 3 3 3 3 2 2 2 2 2 2 2 2 2 2 2 2 2 2 2 2 2 2 2 2 2 2 2 2 2 2 2 2 2 2 2 2 2 2 2 2 2 2 2 1 1 1 1 1 1 1 1 1 2 2 2 2 2 2 2 2 2 2 2 2 3 3 3 3 4 4 4 5 5 6 7 8 8 9 10 9 9 10 10 11 14 18 26 40 52 61 64 63 64 66 69
5 4 4 4 4 4 4 3 3 3 3 2 2 2 2 2 2 2 2 2 2 2 2 2 2 2 2 2 2 2 2 2 2 2 2 2 2 2 2 2 2 2 2 2 2 2 2 2 2 2 2 2 1 1 1 1 1 1 1 1 1 1 2 2 2 2 2 2 2 2 2 2 2 3 3 3 3 4 4 4 4 5 6 7 8 8 9 10 10 10 10 10 12 14 18 29 42 55 63 64 64 64 66
4 4 4 4 4 4 3 3 3 3 2 2 2 2 2 2 2 2 2 2 2 2 2 2 2 2 2 2 2 2 2 2 2 2 2 2 2 2 2 2 2 2 2 2 2 2 2 2 2 2 2 2 2 1 1 1 1 1 1 1 1 1 1 1 2 2 2 2 2 2 2 2 2 2 2 3 3 3 3 4 4 4 5 6 6 7 8 9 10 10 10 10 10 12 14 20 31 44 58 63 65 65 65
4 4 4 4 4 3 3 3 3 2 2 2 2 2 2 2 2 2 2 2 2 2 2 2 2 2 2 2 2 2 2 2 2 2 2 2 2 2 2 2 2 2 2 2 2 2 2 2 2 2 2 2 2 2 2 1 1 1 1 1 1 1 1 1 1 2 2 2 2 2 2 2 2 2 2 2 3 3 3 3 4 4 4 5 6 6 7 8 8 10 10 10 10 10 12 15 22 33 48 58 64 66 66
4 4 4 4 3 3 3 3 2 2 2 2 2 2 2 2 2 2 2 2 2 2 2 2 2 2 2 2 2 2 2 2 2 2 2 2 2 2 2 2 2 2 2 2 2 2 2 2 2 2 2 2 2 2 2 2 2 1 1 1 1 1 1 1 1 1 1 2 2 2 2 2 2 2 2 2 2 2 3 3 3 4 4 4 4 5 6 7 8 8 10 10 10 10 11 12 16 24 36 50 60 66 67
4 4 3 3 3 3 3 2 2 2 2 2 2 2 2 2 2 2 2 2 2 2 2 2 2 2 2 2 2 2 2 2 2 2 2 2 2 2 2 2 2 2 2 2 2 2 2 2 2 2 2 2 2 2 2 2 2 2 2 1 1 1 1 1 1 1 1 1 2 2 2 2 2 2 2 2 2 2 2 3 3 3 3 4 4 4 5 6 7 8 8 9 10 10 10 11 13 18 25 39 52 63 68
4 4 3 3 3 3 2 2 2 2 2 2 2 2 2 2 2 2 2 2 2 2 2 2 2 2 2 2 2 2 2 3 3 3 3 3 3 3 3 3 2 2 2 2 2 2 2 2 2 2 2 2 2 2 2 2 2 2 2 2 2 1 1 1 1 1 1 1 1 2 2 2 2 2 2 2 2 2 2 2 3 3 3 3 4 4 4 5 6 7 8 8 9 10 10 10 12 14 18 28 42 56 66
4 3 3 3 3 3 2 2 2 2 2 2 2 2 2 2 2 2 2 2 2 2 2 2 3 3 3 3 3 3 3 3 3 3 3 3 3 3 3 3 3 3 3 3 3 3 2 2 2 2 2 2 2 2 2 2 2 2 2 2 2 2 2 1 1 1 1 1 1 1 1 2 2 2 2 2 2 2 2 2 2 2 3 3 3 3 4 4 5 6 7 8 8 9 10 10 10 12 14 21 32 45 60
3 3 3 3 3 2 2 2 2 2 2 2 2 2 2 2 2 2 2 2 2 2 3 3 3 3 3 3 3 3 3 3 3 3 3 3 3 3 3 3 3 3 3 3 3 3 3 3 3 3 2 2 2 2 2 2 2 2 2 2 2 2 2 2 1 1 1 1 1 1 1 1 2 2 2 2 2 2 2 2 2 2 2 3 3 3 3 4 4 4 6 7 8 8 9 10 10 11 12 16 24 35 50
3 3 3 3 3 2 2 2 2 2 2 2 2 2 2 2 2 2 2 2 2 3 3 3 3 3 3 3 3 3 3 3 3 3 3 3 3 3 3 3 3 3 3 3 3 3 3 3 3 3 3 3 3 3 2 2 2 2 2 2 2 2 2 2 2 2 1 1 1 1 1 1 1 2 2 2 2 2 2 2 2 2 2 2 2 3 3 3 3 4 4 6 7 8 8 9 10 10 11 13 18 26 38
3 3 3 3 2 2 2 2 2 2 2 2 2 2 2 2 2 2 2 2 3 3 3 3 3 3 3 3 3 3 3 3 3 3 3 3 3 3 3 4 4 4 4 4 4 4 4 4 4 4 4 3 3 3 3 3 3 2 2 2 2 2 2 2 2 2 2 2 1 1 1 1 1 1 1 2 2 2 2 2 2 2 2 2 2 2 3 3 3 3 4 4 6 7 8 8 9 10 10 12 14 20 28
3 3 3 3 2 2 2 2 2 2 2 2 2 2 2 2 2 2 2 3 3 3 3 3 3 3 3 3 3 3 3 3 3 3 4 4 4 4 4 4 4 4 4 4 4 4 4 4 4 4 4 4 4 4 4 3 3 3 3 3 2 2 2 2 2 2 2 2 2 1 1 1 1 1 1 1 2 2 2 2 2 2 2 2 2 2 2 3 3 3 3 4 4 5 7 8 8 9 10 10 12 15 21
3 3 3 2 2 2 2 2 2 2 2 2 2 2 2 2 2 2 2 3 3 3 3 3 3 3 3 3 3 3 4 4 4 4 4 4 4 4 4 4 4 4 4 4 4 4 4 4 4 4 4 4 4 4 4 4 4 4 4 3 3 3 3 2 2 2 2 2 2 2 2 1 1 1 1 1 2 2 2 1 1 2 2 2 2 2 2 2 2 3 3 3 4 4 5 6 8 8 10 10 11 13 16
3 3 3 3 2 2 2 2 2 2 2 2 2 2 2 2 2 2 2 3 3 3 3 3 3 3 4 4 4 4 4 4 4 4 4 4 4 4 4 4 4 5 5 5 5 5 5 5 5 5 4 4 4 4 4 4 4 4 4 4 4 3 3 3 3 2 2 2 2 2 2 2 1 1 1 1 1 2 2 1 1 1 1 1 2 2 2 2 2 2 2 2 3 3 4 5 6 8 8 10 10 11 13
3 3 3 3 3 2 2 2 2 2 2 2 2 2 2 2 2 2 3 3 3 3 3 4 4 4 4 4 4 4 4 4 4 4 5 5 5 5 5 5 5 5 5 5 5 5 5 5 5 5 5 4 4 4 4 4 4 4 4 4 4 4 4 3 3 3 3 2 2 2 2 2 2 2 1 1 2 2 2 2 1 1 1 1 1 1 2 2 2 2 2 2 2 2 3 4 5 6 8 8 10 10 12
3 3 3 3 3 2 2 2 2 2 2 2 2 2 2 2 2 3 3 3 3 3 4 4 4 4 4 4 4 4 4 4 5 5 5 5 6 6 6 6 6 6 6 5 5 5 5 5 5 5 5 4 4 4 4 4 4 4 4 4 4 4 4 4 4 3 3 3 2 2 2 2 2 2 2 2 2 2 2 2 2 1 1 1 1 1 1 1 2 2 2 2 2 2 2 3 4 5 6 8 8 10 10
3 3 3 3 3 2 2 2 2 2 2 2 2 2 3 3 3 3 3 3 3 4 4 4 4 4 4 4 5 5 5 5 5 6 6 6 6 6 6 6 6 6 6 6 6 5 5 5 5 5 4 4 4 4 4 4 4 4 4 4 4 4 4 4 4 4 4 3 3 3 2 2 2 2 2 2 2 2 2 2 2 2 1 1 1 1 1 1 1 2 2 2 2 2 2 2 3 4 5 6 8 8 10
3 3 3 3 3 2 2 2 2 2 2 2 2 3 3 3 3 3 3 4 4 4 4 4 4 4 4 5 5 5 6 6 6 6 6 6 7 7 7 6 6 6 6 6 6 5 5 5 5 4 4 4 4 4 4 4 4 4 4 4 4 4 4 4 4 4 4 4 4 3 3 3 2 2 2 2 2 2 2 2 2 2 2 1 1 1 1 1 1 1 1 2 2 2 2 2 2 3 4 5 6 8 8
3 3 3 3 2 2 2 2 2 2 2 2 3 3 3 3 3 4 4 4 4 4 4 4 4 5 5 5 6 6 6 6 6 7 7 7 7 7 7 7 7 6 6 6 6 5 5 4 4 4 4 4 4 3 3 3 3 3 3 3 3 3 4 4 4 4 4 4 4 4 3 3 3 3 2 2 2 2 2 2 2 2 2 2 1 1 1 1 1 1 1 1 1 1 1 1 2 2 3 4 5 6 8
3 3 3 3 2 2 2 2 2 2 2 3 3 3 3 4 4 4 4 4 4 4 4 5 5 5 5 6 6 6 6 7 7 7 7 8 7 7 7 7 6 6 6 6 5 5 4 4 4 4 4 4 3 3 3 3 3 3 3 3 3 3 3 3 3 4 4 4 4 4 4 4 3 3 3 3 2 2 2 2 2 2 2 2 2 1 1 1 1 1 1 1 1 1 1 1 1 2 2 3 4 5 6
3 3 3 2 2 2 2 2 2 3 3 3 3 3 4 4 4 4 4 4 4 5 5 5 5 5 6 6 6 6 7 7 7 8 8 8 8 7 7 7 6 6 6 5 5 4 4 4 4 4 4 4 4 3 3 3 3 3 2 2 2 2 2 3 3 3 3 4 4 4 4 4 4 4 3 3 3 3 3 3 3 3 2 2 2 2 1 1 1 1 1 1 1 1 1 1 1 1 1 2 3 4 5
3 3 3 2 2 2 2 2 3 3 3 3 3 4 4 4 4 4 4 4 5 5 5 5 6 6 6 6 7 7 7 8 8 8 8 8 8 7 7 6 6 6 5 5 5 5 5 5 5 5 5 4 4 4 4 4 3 3 3 3 2 2 2 2 2 2 3 3 3 4 4 4 4 4 4 4 3 3 3 3 3 3 3 3 2 2 1 1 1 1 2 2 2 2 2 1 1 1 1 1 2 3 4
3 3 3 2 2 2 3 3 3 3 3 3 4 4 4 4 4 4 5 5 5 5 6 6 6 6 6 7 7 8 8 8 8 8 8 8 7 7 6 6 6 5 5 5 5 5 6 6 6 6 6 6 6 6 5 5 4 4 4 3 3 3 2 2 2 2 2 2 3 3 3 4 4 4 4 4 4 4 4 4 4 4 4 3 3 2 2 2 2 2 2 2 3 3 3 2 2 1 1 1 1 2 3
3 3 3 3 3 3 3 3 3 3 3 4 4 4 4 4 5 5 5 6 6 6 6 6 6 7 7 7 8 8 8 8 8 8 8 8 7 6 6 6 5 5 5 6 6 6 7 7 7 7 7 7 7 7 7 6 6 5 5 4 4 3 3 3 2 2 2 2 2 3 3 3 4 4 4 4 4 4 4 4 4 4 4 4 4 3 2 2 2 2 3 3 4 4 6 4 3 2 1 1 1 2 2
3 3 3 3 3 3 3 3 3 3 4 4 4 4 4 5 5 5 6 6 6 6 6 7 7 7 8 8 8 8 8 8 8 8 8 7 7 6 6 5 5 6 6 7 7 8 8 8 8 8 9 9 10 10 10 9 8 8 6 6 5 4 4 3 3 3 2 2 2 2 2 3 3 4 4 4 4 4 4 4 4 4 4 4 4 4 3 3 2 3 4 5 6 7 8 7 5 3 2 1 1 1 2
3 3 3 3 3 3 3 3 4 4 4 4 4 4 5 5 5 6 6 6 6 7 7 7 8 8 8 8 8 8 9 9 8 8 8 7 6 6 5 5 6 6 7 8 8 8 8 9 10 10 11 11 12 12 12 12 11 10 8 8 6 5 5 4 4 3 3 2 2 2 2 2 3 3 4 4 4 4 4 4 4 4 5 5 5 4 4 4 4 4 7 11 12 12 13 12 8 5 3 2 1 1 1
3 3 3 3 3 3 3 3 4 4 4 4 5 5 5 5 6 6 6 6 7 7 7 8 8 8 8 8 9 9 9 9 8 8 8 7 6 6 5 6 6 8 8 8 8 9 10 10 11 12 12 13 14 14 15 15 14 13 12 10 8 7 6 5 4 4 4 3 3 2 2 2 2 3 3 4 4 4 4 4 5 5 5 5 5 5 5 4 6 8 11 16 21 24 25 21 15 10 4 2 1 1 1
3 3 3 3 3 3 3 4 4 4 4 5 5 5 6 6 6 6 6 7 7 7 8 8 8 8 9 10 10 10 10 9 8 8 7 6 6 6 6 7 8 8 9 9 10 10 10 11 12 13 14 15 16 16 17 18 17 16 15 13 11 9 7 6 5 5 4 4 3 3 3 2 2 3 3 3 4 4 4 4 5 5 6 6 6 6 6 6 10 14 19 26 32 37 40 34 26 17 8 4 2 1 1
3 3 3 3 3 3 4 4 4 4 5 5 5 6 6 6 6 7 7 7 8 8 8 8 9 10 10 10 10 10 10 9 8 8 7 6 6 6 6 8 8 10 10 10 10 10 11 12 13 14 15 16 18 18 19 20 20 20 19 17 15 12 10 8 6 6 5 4 4 4 3 3 3 3 3 3 3 4 4 4 5 6 6 6 7 7 7 9 15 22 28 39 43 46 49 46 42 34 16 8 3 2 1
3 3 3 3 3 4 4 4 4 5 5 5 6 6 6 6 7 7 8 8 8 8 9 10 10 10 10 10 10 10 10 8 8 7 6 6 6 6 8 9 10 10 10 10 11 12 12 13 14 15 16 18 20 21 22 23 23 24 24 22 19 16 12 10 8 7 6 5 4 4 4 4 3 3 3 3 3 4 4 4 5 6 7 8 8 9 10 14 22 30 38 43 48 51 54 55 57 52 31 14 6 2 2
3 3 3 3 4 4 4 4 5 5 6 6 6 6 7 7 8 8 8 8 9 10 10 10 10 11 11 11 11 10 10 8 8 7 6 6 6 8 9 10 10 11 11 11 12 12 13 14 15 16 18 20 22 24 24 26 26 27 27 26 22 19 15 12 10 8 7 6 6 5 4 4 4 4 3 3 3 3 4 4 5 6 7 8 10 12 16 26 33 39 47 50 53 56 56 53 55 55 47 26 11 4 2
3 3 3 3 4 4 4 5 5 6 6 6 6 7 7 8 8 8 8 9 10 10 11 11 11 12 12 11 11 10 10 8 8 7 6 6 7 8 10 11 12 12 12 12 13 13 14 15 17 18 20 22 24 26 28 29 31 32 31 29 26 21 17 14 11 10 8 7 6 6 5 5 5 5 4 4 3 3 3 4 4 6 8 10 12 15 24 36 42 44 52 58 60 58 56 57 58 60 58 38 21 8 4
3 3 3 4 4 4 4 5 6 6 6 7 7 8 8 8 8 9 10 10 10 11 12 12 12 12 12 12 11 10 10 8 7 6 6 7 8 10 12 12 12 12 13 13 14 14 15 17 18 20 23 25 27 29 31 34 36 36 36 32 27 22 18 14 12 10 9 8 8 7 6 6 6 6 5 4 4 4 3 8 9 10 12 12 13 16 24 39 48 51 50 60 64 64 61 62 66 68 64 48 32 17 7
3 3 4 4 4 4 5 5 6 6 7 7 8 8 8 8 10 10 10 11 11 12 13 13 13 13 13 12 11 10 9 8 7 6 6 8 10 12 13 14 14 14 13 14 14 15 17 18 20 23 25 28 30 33 36 39 41 42 40 34 28 23 18 15 12 11 10 9 8 8 7 7 7 7 6 5 4 4 3 11 18 23 24 18 17 19 24 38 50 58 53 63 70 72 70 66 70 74 74 63 48 31 12
3 4 4 4 4 5 5 6 6 7 7 8 8 8 9 10 10 10 11 12 12 13 14 14 14 14 13 12 11 10 9 8 7 7 7 9 11 13 15 15 15 14 14 14 15 16 18 20 22 24 28 31 34 38 41 44 47 47 45 38 31 24 19 16 13 12 10 10 9 8 8 8 8 8 8 7 6 5 4 9 18 27 33 24 21 24 33 46 56 62 66 71 76 77 74 69 71 74 75 72 62 46 21
3 4 4 4 5 5 6 6 6 7 8 8 8 9 10 10 11 12 12 13 14 14 14 15 14 14 14 12 11 10 8 8 8 7 8 10 13 15 16 17 16 15 14 15 16 18 20 22 24 27 30 34 38 42 46 51 54 54 51 42 34 26 20 17 15 13 12 12 12 12 12 13 13 12 11 10 8 7 6 8 14 22 30 26 24 26 39 51 60 69 76 77 76 76 76 74 72 72 71 74 68 54 31
4 4 4 4 5 6 6 6 7 7 8 8 9 10 10 11 12 12 14 14 15 15 15 15 15 14 14 12 11 10 8 8 8 8 10 12 15 17 19 18 18 16 16 16 17 19 21 24 26 30 33 38 43 48 54 58 61 61 57 47 38 28 22 19 18 17 17 19 21 24 27 30 31 29 24 20 15 12 10 11 16 22 28 27 26 27 36 48 61 72 78 76 74 73 74 75 74 74 72 70 64 53 37
4 4 4 5 5 6 6 7 7 8 8 8 10 10 11 12 12 14 14 15 16 16 16 16 16 15 14 13 11 10 9 8 9 10 12 15 18 20 21 21 20 18 17 17 18 20 23 26 29 33 37 43 49 55 60 65 67 66 62 52 40 31 24 23 23 24 26 31 37 44 52 56 56 52 45 35 26 20 16 17 20 23 26 28 28 30 32 45 59 70 76 74 72 70 68 72 73 73 73 67 60 50 40
4 4 4 5 6 6 7 7 8 8 8 9 10 10 11 12 14 14 16 16 17 17 17 17 16 16 14 13 12 10 10 10 11 12 14 18 20 22 24 23 22 20 19 18 20 22 26 29 33 36 41 48 55 61 67 70 71 70 67 56 43 34 29 30 32 36 43 51 58 65 71 73 72 69 63 52 42 33 27 25 24 24 24 26 28 31 33 42 51 60 65 66 66 64 62 64 67 68 68 66 61 54 46
4 4 5 6 6 7 7 8 8 8 9 10 10 11 12 13 14 16 17 18 18 18 18 18 17 16 15 14 12 11 10 11 13 15 18 20 22 24 26 26 24 22 19 19 21 25 30 33 36 40 45 52 60 67 72 74 74 72 69 58 46 39 39 43 46 51 60 69 74 76 78 78 78 76 74 67 58 49 42 35 30 26 24 23 26 28 32 35 38 41 44 47 49 50 50 51 53 55 57 59 59 56 49
4 4 5 6 6 7 8 8 8 8 10 10 11 12 13 14 16 17 18 19 19 19 19 18 17 16 15 14 12 11 10 13 16 18 22 24 25 27 28 28 26 24 20 20 24 29 34 37 40 43 49 58 66 72 76 77 76 74 69 59 51 47 53 59 62 66 72 77 78 78 79 79 79 78 78 76 71 64 55 47 40 34 28 26 26 27 28 28 26 24 23 24 25 27 29 30 33 36 40 44 47 48 45
4 5 5 6 7 7 8 8 8 9 10 10 12 13 14 16 17 18 19 20 20 20 20 19 18 16 15 14 13 12 11 15 18 22 24 28 31 33 35 34 30 26 22 23 27 33 38 40 43 48 54 62 70 74 78 78 76 73 68 60 57 58 65 70 74 76 78 78 78 79 79 80 79 79 79 78 76 73 66 59 52 44 36 31 28 26 26 24 20 16 13 12 11 12 12 13 15 19 24 28 31 34 36
4 5 6 6 7 8 8 8 9 10 10 11 12 14 15 16 18 19 20 21 21 21 20 19 18 17 16 15 14 12 12 17 22 26 28 32 36 40 44 43 40 35 30 30 33 36 40 44 47 51 56 63 68 73 77 78 76 72 67 63 64 68 74 77 78 77 76 76 77 78 79 79 79 80 80 79 78 76 74 69 62 55 46 38 31 27 24 20 17 14 12 10 10 8 8 8 9 12 17 20 22 24 26
5 5 6 7 7 8 8 8 10 10 10 12 13 14 16 18 19 20 22 22 22 22 21 20 18 17 16 16 14 13 14 18 24 30 34 36 40 44 50 54 56 56 53 48 44 42 44 48 49 50 52 58 62 68 74 76 74 70 66 67 71 74 76 75 74 73 73 73 74 77 79 80 80 80 80 80 79 78 78 76 70 63 55 44 35 27 22 18 15 13 12 12 11 10 8 8 9 11 14 15 16 18 20
5 5 6 7 8 8 8 9 10 10 11 12 14 15 17 18 20 21 23 23 23 23 22 20 19 18 17 16 15 14 14 18 25 32 38 40 43 47 56 66 71 73 71 69 63 58 52 54 51 48 45 52 58 64 74 76 74 70 67 68 69 69 66 66 67 70 75 74 74 74 78 80 80 80 80 80 80 79 78 78 75 70 61 50 39 28 21 16 14 12 12 11 10 10 8 8 8 9 10 11 12 14 16
5 6 6 7 8 8 9 10 10 11 12 13 15 16 18 19 21 22 24 24 24 24 22 21 19 18 17 17 16 15 14 17 24 30 38 43 46 52 62 72 76 74 73 76 77 75 67 62 56 49 42 48 54 62 73 76 76 72 69 66 64 63 63 63 65 67 70 66 65 67 73 78 80 81 80 80 80 79 78 78 76 72 63 53 40 29 20 15 13 12 11 10 10 8 7 6 6 6 5 6 8 10 12
5 6 6 7 8 9 10 10 11 12 13 14 16 17 19 20 22 24 24 25 24 24 23 21 20 18 17 17 17 16 16 16 21 28 35 42 48 54 64 73 76 76 76 76 78 78 76 70 62 54 44 47 53 61 72 76 77 74 70 64 61 59 59 58 60 61 62 62 62 62 67 74 79 81 80 80 79 78 77 76 74 70 62 51 39 27 19 15 13 12 11 10 8 8 7 6 5 4 3 3 4 6 8
5 6 6 8 8 10 10 10 11 12 14 15 16 18 20 22 23 24 26 26 26 24 24 22 20 18 17 18 18 18 17 17 20 26 33 41 46 51 61 72 78 79 78 78 77 76 74 73 69 62 51 48 50 58 70 76 78 76 71 65 62 60 57 56 57 58 58 59 60 61 63 70 76 80 80 80 78 77 76 74 73 69 61 50 39 28 21 17 15 13 11 10 8 8 7 6 6 5 4 3 3 4 5
5 6 7 8 9 10 10 11 12 13 14 16 18 19 21 23 24 26 27 27 26 26 24 22 20 18 17 18 18 19 19 18 20 24 31 38 43 48 56 69 75 76 76 77 78 77 74 73 75 74 64 52 48 53 66 76 78 77 74 69 65 64 66 66 65 61 55 55 55 57 60 66 72 77 79 79 78 76 75 74 74 70 64 54 45 36 28 23 19 16 13 11 9 8 7 6 6 5 4 4 4 4 4
5 6 7 8 10 10 11 12 12 13 15 16 18 20 22 24 26 27 28 28 27 26 24 22 20 18 17 17 18 20 20 20 22 24 28 34 40 45 53 65 74 79 78 78 78 78 77 76 78 78 74 61 51 48 58 72 78 78 76 72 70 71 75 76 74 68 57 53 52 54 59 64 69 74 77 77 76 76 75 76 76 74 70 63 54 44 34 27 22 18 15 12 10 9 8 6 6 6 6 6 7 8 10
5 6 7 8 10 10 12 12 13 14 15 17 19 21 24 26 27 28 28 28 28 26 24 23 20 18 17 17 18 20 21 22 24 26 28 31 36 42 51 60 68 74 77 78 78 78 78 79 79 79 78 74 62 52 48 63 74 79 78 74 74 74 78 78 77 74 66 58 54 54 56 60 65 69 74 76 77 77 77 77 76 75 72 64 54 44 34 26 21 18 16 14 12 10 8 8 7 6 6 7 12 17 18
5 6 7 8 10 11 12 13 14 14 16 18 20 22 24 26 28 29 29 29 28 27 26 24 21 18 16 16 17 19 21 23 26 30 32 32 35 40 47 55 62 68 72 74 76 77 78 78 79 79 79 79 74 64 49 55 64 74 78 77 77 77 79 79 78 76 72 64 58 54 54 58 62 66 72 74 76 76 74 72 69 65 60 53 45 37 29 24 20 17 16 14 13 12 11 9 8 7 6 11 18 24 26
5 6 8 9 10 12 13 13 14 15 17 19 21 24 26 28 29 30 30 30 29 28 26 24 22 19 17 16 16 18 20 24 27 31 35 36 37 39 44 50 56 61 66 70 72 74 75 76 78 78 79 80 78 73 62 57 59 65 72 76 78 79 80 79 78 76 74 69 64 60 59 61 64 68 70 70 68 66 62 58 53 49 45 42 37 32 27 23 20 18 16 16 16 16 16 13 10 8 10 17 26 34 42
Wind_Speed
34 34 34 35 35 35 35 35 35 36 36 36 36 37 37 37 38 38 39 40 40 41 42 42 43 43 43 43 44 44 44 44 45 45 45 45 45 44 44 44 44 44 44 44 44 44 45 45 44 43 43 42 43 42 42 43 44 45 45 44 43 42 42 43 45 46 47 48 48 49 50 51 52 53 53 54 54 53 53 53 52 52 51 51 50 50 49 48 47 46 45 45 45 44 43 42 41 41 41 41 41 39 37
34 35 35 35 35 35 35 36 36 36 36 37 37 37 38 38 38 39 39 40 41 41 42 42 43 43 44 44 44 45 45 45 46 46 46 46 46 46 46 46 46 45 45 45 45 45 46 46 46 45 44 44 44 44 44 44 44 45 46 46 45 44 43 44 45 47 48 48 49 50 51 51 52 53 54 55 55 55 55 54 54 53 53 53 52 51 51 50 49 48 47 46 46 46 45 44 43 42 42 42 42 41 40
35 35 35 35 35 35 36 36 36 37 37 37 38 38 38 39 39 39 40 40 41 41 42 42 43 44 44 45 45 45 46 46 46 47 47 47 47 47 47 47 47 47 47 47 47 47 47 47 47 46 46 46 46 46 46 46 45 46 46 47 47 46 45 45 46 47 48 49 50 51 51 52 53 54 55 55 56 56 56 56 55 55 55 54 53 53 52 52 51 50 49 48 47 47 47 46 45 44 43 43 43 43 42
35 35 35 35 36 36 36 36 37 37 38 38 38 39 39 39 40 40 40 41 41 42 42 42 43 44 44 45 45 46 46 47 47 47 47 48 48 48 48 49 49 49 49 48 48 48 48 48 47 46 46 47 48 48 48 47 47 47 47 47 48 48 48 47 47 48 49 50 51 52 52 53 54 54 55 56 57 57 57 57 57 57 56 56 55 54 54 53 52 52 51 50 49 48 48 47 46 46 45 44 44 44 44
35 35 35 36 36 36 37 37 38 38 38 39 39 40 40 40 40 41 41 42 42 42 42 43 43 44 44 45 45 46 47 47 48 48 48 48 49 49 49 50 50 50 50 50 50 50 50 49 47 46 46 47 49 49 49 49 49 48 48 48 49 49 49 49 49 49 49 50 52 53 53 54 54 55 56 57 57 58 58 59 59 58 58 57 57 56 55 55 54 54 53 52 51 50 49 49 48 47 46 46 45 45 45
35 35 36 36 37 37 38 38 39 39 39 40 40 40 41 41 41 42 42 43 43 43 43 44 44 44 45 45 46 46 47 47 48 49 49 50 50 50 51 51 52 52 52 52 52 52 52 51 49 47 46 47 48 49 50 50 50 50 50 49 49 50 51 51 51 51 51 51 52 53 54 55 56 56 57 57 58 59 59 60 60 60 59 59 58 58 57 56 56 55 55 54 53 52 51 50 50 49 48 47 47 47 46
36 36 37 37 38 38 39 39 40 40 40 41 41 41 42 42 42 43 43 44 44 44 44 45 45 45 45 45 46 46 47 47 48 49 50 50 51 52 52 53 53 53 54 54 54 54 54 52 50 49 48 48 48 49 50 50 51 51 51 51 51 51 52 52 53 53 53 52 53 54 55 56 57 58 58 58 59 59 60 61 61 61 61 60 60 60 59 58 58 57 56 55 55 54 52 52 51 50 50 49 48 48 48
37 37 38 38 39 39 40 40 41 41 41 42 42 42 43 43 44 44 44 45 45 45 45 46 46 46 46 46 46 47 47 47 48 49 50 51 52 52 53 54 54 55 55 55 56 56 55 54 53 51 50 49 49 49 50 51 51 51 51 51 51 52 53 54 54 55 55 54 54 55 55 57 58 59 59 60 60 60 61 61 62 62 62 62 61 61 61 60 59 59 58 57 56 56 54 53 52 52 51 51 50 49 49
38 38 39 39 40 40 41 41 42 42 42 43 43 43 44 44 45 45 45 46 46 46 47 47 47 47 47 47 47 47 47 48 48 49 49 50 51 52 53 54 55 55 56 56 56 57 56 56 55 54 53 51 51 51 51 51 51 52 51 51 51 52 53 54 55 56 57 56 56 56 56 57 58 60 60 61 61 61 61 62 62 63 63 63 63 63 62 62 61 60 59 59 58 57 56 55 54 53 53 52 52 51 50
39 39 40 40 41 41 41 42 42 43 43 44 44 44 45 45 45 46 46 47 47 47 48 48 48 48 48 48 48 48 48 48 48 49 49 50 51 52 52 53 54 55 56 56 56 56 57 57 56 56 55 54 53 52 52 52 53 52 52 52 52 52 53 55 56 57 58 58 58 58 58 58 59 60 61 62 62 63 63 63 63 64 64 64 64 64 64 63 63 62 61 60 60 59 58 57 56 55 54 54 53 52 52
39 40 40 41 41 42 42 42 43 43 44 44 45 45 45 46 46 47 47 48 48 49 49 49 49 50 50 50 50 49 49 49 49 49 49 50 50 51 52 52 53 54 55 55 55 55 56 56 56 56 56 55 55 54 54 54 53 53 53 53 53 53 54 55 56 58 59 60 60 60 60 60 60 61 62 63 64 64 64 64 65 65 65 65 65 65 65 65 65 64 63 62 61 60 60 59 58 57 56 55 54 54 53
39 40 41 41 42 42 42 43 43 44 44 45 45 46 46 46 47 47 48 49 49 49 50 50 50 51 51 51 50 50 50 49 49 49 50 50 50 50 51 51 52 53 53 54 54 54 54 54 54 55 55 55 55 55 55 55 54 54 54 54 54 54 55 55 56 58 60 61 62 62 62 61 61 62 63 64 65 65 66 66 66 66 66 66 66 66 66 66 66 66 65 64 63 62 61 61 60 59 58 57 56 55 55
40 40 41 41 42 43 43 44 44 44 45 45 46 46 47 47 48 48 49 49 50 50 50 51 51 51 52 52 51 51 50 50 50 50 50 50 50 50 51 51 51 52 52 53 53 53 53 53 53 53 54 54 54 55 55 55 55 55 55 54 55 55 56 57 57 59 60 62 63 64 64 64 63 63 63 64 65 66 67 67 67 67 67 67 67 68 68 68 67 67 67 66 65 64 63 62 61 61 60 58 57 57 56
40 41 41 42 43 43 44 44 45 45 45 46 46 47 47 48 48 49 49 50 50 51 51 51 52 52 52 52 52 52 51 51 50 50 50 50 50 50 51 51 51 51 52 52 52 52 53 53 53 53 53 53 53 54 54 55 55 55 55 55 55 56 57 58 58 60 61 63 64 66 66 66 65 64 64 65 66 67 68 68 69 69 69 68 68 69 69 69 69 68 68 68 67 66 65 64 63 62 61 60 59 58 58
40 41 42 43 43 44 44 45 45 46 46 47 47 48 48 49 49 50 50 50 51 51 51 52 52 52 53 53 53 53 52 51 51 51 50 50 50 50 50 51 51 51 51 51 52 52 52 52 53 52 52 52 52 53 53 54 54 55 55 55 56 57 58 59 60 61 62 63 65 67 68 68 67 66 65 66 66 67 69 69 70 70 70 70 70 70 70 70 70 70 69 69 68 68 67 66 65 64 63 62 61 60 59
41 42 43 43 44 45 45 45 46 46 47 47 48 48 49 49 50 50 51 51 51 52 52 52 53 53 53 54 54 54 53 52 52 51 51 50 50 50 50 50 50 50 51 51 51 51 52 52 52 52 52 52 52 53 53 53 54 54 55 56 56 57 58 59 60 61 63 64 66 68 69 69 69 68 67 66 67 68 69 70 71 71 71 71 71 71 71 71 71 71 71 70 70 69 69 67 66 66 65 64 63 62 61
42 43 44 44 45 45 46 46 47 47 48 48 48 49 49 50 50 51 51 52 52 52 53 53 54 54 54 55 55 55 54 54 53 52 51 51 50 50 50 50 50 50 50 50 50 51 51 51 52 52 52 52 52 53 53 53 53 54 55 56 56 57 58 59 60 62 63 65 67 68 70 71 71 70 69 68 67 68 69 70 71 72 73 73 72 72 72 72 72 72 72 72 71 71 70 69 68 67 66 66 65 64 63
43 44 45 45 46 46 47 47 48 48 48 49 49 49 50 50 51 52 52 53 53 54 54 55 55 55 56 56 56 56 56 55 55 54 53 52 52 51 51 50 50 50 50 50 50 50 50 50 51 52 52 52 52 53 53 53 53 53 54 55 56 57 58 59 60 62 63 65 67 69 71 72 72 72 71 70 69 68 69 71 72 73 74 74 74 74 74 73 73 73 73 73 73 72 72 71 70 69 68 67 66 66 64
44 45 45 46 47 47 48 48 49 49 50 50 50 51 51 52 52 53 54 54 55 56 56 57 57 57 57 57 57 57 57 57 57 56 55 54 54 53 52 52 51 51 50 50 50 50 50 50 50 51 51 52 52 52 52 53 53 53 54 55 56 57 58 59 60 61 63 64 66 68 71 73 74 74 74 72 71 70 70 71 72 73 74 75 75 75 75 75 75 74 74 74 74 73 73 72 72 71 70 69 68 67 66
45 45 46 47 47 48 49 49 50 50 51 52 52 53 53 54 55 55 56 57 57 58 58 59 59 59 59 59 59 59 59 59 58 58 57 57 56 55 54 54 53 52 52 51 51 50 50 50 50 50 51 51 52 52 52 52 53 53 54 54 55 56 57 59 60 61 62 64 66 68 70 72 74 75 75 74 73 72 70 71 72 73 75 76 76 76 76 76 76 76 75 75 75 74 74 74 73 72 72 71 70 69 68
46 46 47 48 48 49 50 51 51 52 53 54 54 55 56 57 58 58 59 59 59 60 60 60 60 61 61 61 61 61 61 60 60 60 59 58 58 57 56 56 55 54 54 53 52 52 51 51 51 51 51 51 52 52 52 52 53 53 54 54 55 56 57 58 59 60 62 63 65 67 69 72 74 75 76 76 75 73 72 71 71 73 74 76 77 77 78 78 77 77 77 76 76 75 75 75 74 74 73 72 71 71 70
47 47 48 49 50 51 51 52 53 54 55 56 56 57 58 59 60 60 61 61 61 61 62 62 62 62 62 62 62 62 62 62 61 61 61 60 60 59 58 58 57 56 56 55 55 54 53 53 52 52 52 52 52 52 52 52 53 53 54 54 55 56 56 57 58 60 61 63 64 66 68 70 73 75 76 76 76 75 73 72 71 72 74 75 76 78 78 78 78 78 78 77 77 76 76 76 76 75 75 74 73 72 71
48 49 50 50 51 52 53 54 55 56 56 57 58 59 59 60 61 61 62 62 62 62 63 63 63 63 63 63 63 63 63 63 62 62 62 62 61 61 60 60 59 59 58 58 57 56 56 55 55 54 54 54 54 53 53 53 54 54 54 55 55 56 57 57 58 59 60 61 63 65 67 69 71 74 75 76 75 75 74 72 71 71 72 74 76 77 78 79 79 79 79 78 78 77 77 77 76 76 76 75 75 74 73
49 50 51 52 53 54 54 55 56 57 58 58 59 59 60 61 61 62 62 63 63 63 63 63 63 63 63 63 63 63 63 63 63 63 62 62 62 62 62 61 61 61 60 60 59 59 58 58 57 57 56 56 56 55 55 55 55 55 55 56 56 57 57 58 58 59 59 60 62 63 65 67 70 72 74 75 75 74 73 72 71 71 71 73 74 76 77 78 79 80 80 79 79 78 78 77 77 77 77 76 76 75 74
51 51 52 53 54 55 55 56 57 57 58 59 59 60 60 61 61 62 62 63 63 63 63 63 63 64 63 63 63 63 63 63 63 63 63 63 63 63 63 63 62 62 62 61 61 61 60 60 59 59 59 59 58 58 57 57 56 56 57 57 57 58 58 58 59 59 60 60 61 62 64 66 68 70 72 74 75 74 73 72 71 70 70 71 73 74 76 77 78 79 79 79 79 79 78 78 78 77 77 77 77 77 76
52 52 53 54 55 55 56 57 57 58 58 59 59 60 60 61 61 62 62 62 63 63 63 63 63 63 63 63 63 63 63 63 63 63 63 63 63 63 64 63 63 63 62 62 62 61 61 61 60 60 60 60 60 59 59 59 58 58 58 58 59 59 59 60 60 60 60 61 61 61 62 64 66 68 70 72 74 74 73 72 71 70 69 69 71 73 74 76 77 78 78 79 79 79 79 78 78 78 78 78 78 78 77
52 53 54 55 55 56 56 57 57 58 58 59 59 60 60 61 61 61 62 62 62 63 63 63 63 63 63 63 63 63 63 63 63 63 63 64 64 64 64 64 63 63 62 62 61 61 60 60 60 60 60 60 60 60 60 60 59 59 59 59 60 60 60 61 61 61 61 61 62 62 62 63 64 66 67 69 72 73 73 72 71 70 69 68 69 70 72 74 75 76 76 77 78 79 79 79 78 77 78 78 78 78 78
53 54 54 55 55 56 56 57 57 58 58 59 59 60 60 60 61 61 61 62 62 62 62 63 63 63 63 63 63 63 63 63 63 63 64 64 64 64 64 64 63 63 62 61 60 59 59 58 58 58 58 58 59 59 60 60 60 60 60 60 60 60 61 61 62 62 63 63 63 63 63 63 64 64 65 67 69 70 71 71 70 69 68 68 67 68 70 72 73 74 74 75 76 78 79 79 78 77 77 78 79 79 79
53 54 54 55 55 56 56 57 57 58 58 58 59 60 60 60 60 61 61 62 62 62 62 62 62 62 62 62 63 63 63 63 63 64 64 64 64 64 63 63 62 61 60 59 58 57 56 56 55 55 55 56 56 57 58 59 59 59 59 59 60 60 61 62 62 63 63 64 64 64 64 64 64 64 64 65 66 68 69 69 69 68 67 67 67 67 68 70 71 72 72 73 74 76 78 78 78 77 77 78 78 79 79
53 54 54 55 55 55 56 57 57 58 58 58 59 59 60 60 60 61 61 61 62 62 62 62 62 62 62 62 62 63 63 64 64 64 64 64 63 63 62 62 61 59 57 56 55 54 53 53 52 52 52 53 53 54 55 56 57 57 58 58 59 60 60 61 62 63 64 64 65 65 65 65 65 65 64 64 65 66 67 67 67 66 65 65 65 65 66 68 69 70 70 71 72 74 76 77 77 77 77 77 78 78 79
53 54 54 54 55 55 56 56 57 57 58 58 58 59 59 60 60 61 61 61 61 62 62 62 62 62 62 62 62 63 63 64 64 64 64 64 63 62 61 60 58 56 55 53 52 51 50 50 50 50 50 50 51 52 53 54 55 56 56 57 57 58 59 60 61 62 63 64 65 66 66 66 66 66 65 65 65 65 66 66 66 65 64 63 62 63 64 66 67 68 68 69 70 71 73 75 76 76 76 77 78 78 79
53 54 54 54 55 55 56 56 56 57 57 58 58 58 59 60 60 60 61 61 61 61 61 61 62 62 62 62 62 63 63 64 64 64 64 63 62 61 59 57 55 54 52 50 49 49 48 48 48 48 48 49 50 51 52 53 54 55 55 56 56 57 57 58 60 61 62 63 64 66 66 67 67 67 66 66 65 65 65 65 65 64 63 61 60 60 61 63 65 66 66 67 67 68 69 72 74 75 75 76 77 78 79
53 53 54 54 54 55 55 55 56 56 57 57 58 58 59 59 59 59 60 60 60 60 61 61 61 61 61 62 62 63 63 63 64 64 63 63 61 59 57 55 53 51 50 48 47 47 46 46 47 47 48 48 49 51 52 53 54 55 55 56 56 56 56 57 58 59 60 62 63 64 66 67 68 68 68 67 66 65 65 65 65 64 62 60 58 58 58 60 62 63 64 64 64 64 66 69 72 74 75 75 76 77 78
53 53 53 54 54 54 55 55 55 56 56 57 57 58 58 59 59 59 59 59 60 60 60 60 61 61 61 61 62 63 63 63 63 63 62 61 60 57 55 53 51 49 48 47 46 45 45 45 46 46 47 48 49 50 52 53 54 55 56 56 56 56 56 56 57 58 59 60 61 63 64 66 67 68 69 68 67 66 65 65 65 64 62 60 57 56 55 56 58 60 61 61 61 61 62 65 69 72 74 75 75 76 78
52 53 53 53 54 54 54 54 55 55 56 56 57 57 57 58 58 59 59 59 59 60 60 60 60 61 61 61 62 62 63 63 63 62 61 60 58 55 53 50 49 47 46 46 45 45 45 45 45 46 47 48 49 50 51 53 54 55 56 57 57 57 56 56 56 56 57 58 59 61 62 63 65 67 69 69 68 67 66 65 64 63 62 59 57 54 53 53 55 57 58 58 57 57 58 61 65 69 73 74 75 75 76
52 52 53 53 53 53 54 54 54 55 55 56 56 57 57 57 58 58 58 59 59 59 60 60 60 61 61 62 62 62 63 63 62 61 60 58 55 53 50 48 47 46 46 45 45 45 44 45 45 47 48 49 49 50 51 52 53 54 55 56 57 57 57 56 56 55 56 56 57 58 59 61 63 65 67 68 69 68 67 66 64 63 61 58 55 52 51 51 52 53 54 53 54 55 55 57 61 65 71 73 74 74 75
51 52 52 52 52 53 53 53 54 54 55 55 56 56 57 57 57 57 58 58 59 59 60 60 60 60 61 62 62 62 62 62 61 60 58 56 53 51 48 47 46 45 45 45 45 44 45 45 46 47 48 49 50 50 50 51 51 52 53 54 56 57 57 56 55 55 54 55 55 56 57 58 60 62 64 67 68 68 67 66 64 63 60 57 54 51 49 48 49 51 51 51 54 57 57 57 59 63 67 72 74 73 73
51 51 52 52 52 52 52 53 53 53 54 54 55 55 56 56 57 57 57 58 59 59 59 60 60 61 61 61 62 62 61 61 59 58 56 54 51 48 46 45 45 44 44 44 44 44 45 45 46 47 48 49 50 50 50 50 50 50 51 52 53 55 55 55 55 54 53 53 53 54 54 55 57 59 61 63 65 66 66 65 64 62 59 56 52 49 47 47 48 49 51 53 54 56 58 58 60 62 65 70 73 73 72
50 51 51 51 51 52 52 52 52 53 53 53 54 55 55 56 56 57 57 58 58 59 59 60 60 61 61 61 61 61 60 59 57 55 53 51 49 47 45 44 43 43 43 44 44 44 45 46 47 48 49 49 50 49 49 49 49 49 49 50 51 52 53 53 53 52 52 51 51 52 52 53 54 55 57 60 61 63 63 63 62 61 58 55 51 48 46 48 49 50 52 54 55 56 57 57 59 62 64 69 71 71 71
50 50 50 51 51 51 51 51 52 52 52 53 53 54 55 55 56 57 57 57 58 58 59 59 60 61 61 61 61 60 59 57 55 53 51 49 47 45 44 43 42 43 43 43 44 44 45 46 48 49 49 50 49 49 49 49 48 48 48 48 49 49 50 51 50 50 49 49 49 49 49 50 51 52 54 56 57 58 59 59 59 58 57 54 50 48 48 49 50 50 51 52 54 55 56 55 56 59 64 67 69 70 69
49 50 50 50 50 51 51 51 51 51 51 52 52 53 54 54 55 56 57 57 58 58 58 59 60 60 61 61 60 59 58 56 53 51 49 47 45 44 43 42 42 42 42 43 44 45 45 47 48 50 50 50 49 49 49 49 49 49 48 48 47 47 47 47 47 46 46 46 46 46 46 47 47 48 49 51 53 54 54 54 55 55 54 53 50 48 48 47 47 48 49 50 52 54 55 56 56 57 62 65 67 68 68
49 49 49 50 50 50 50 50 50 50 50 51 51 52 53 54 55 55 56 57 57 58 58 59 59 60 60 60 59 58 56 54 52 49 47 45 44 43 42 42 42 42 42 43 44 45 46 47 49 50 50 50 50 49 49 49 50 49 49 48 47 45 44 44 43 42 42 42 42 42 43 42 42 43 44 46 48 50 51 52 52 51 51 51 50 48 46 45 45 47 49 50 51 53 55 56 56 56 58 61 64 66 67
48 48 49 49 49 50 50 50 50 50 50 50 50 51 52 53 54 55 55 56 57 57 58 58 59 59 60 59 58 56 54 52 50 48 46 44 43 42 41 41 41 42 42 43 44 45 46 48 49 50 50 50 50 50 50 50 50 50 50 48 47 45 43 41 39 38 38 37 38 38 38 37 37 37 39 41 43 46 49 51 51 51 50 51 50 49 47 45 46 48 49 51 52 53 55 56 56 56 57 57 58 62 65
47 48 48 48 49 49 49 49 49 49 49 49 50 50 51 52 53 54 55 55 56 57 58 58 58 58 58 58 56 54 52 50 48 47 45 43 42 42 41 41 41 42 42 43 44 45 46 48 49 50 50 50 50 50 50 50 50 50 50 48 46 44 42 39 37 35 34 34 34 33 33 32 32 33 34 37 39 42 46 49 51 51 51 50 50 49 48 48 48 49 50 52 54 55 55 55 56 57 58 58 58 60 64
47 47 47 48 48 48 49 49 49 48 48 49 49 50 50 51 52 53 54 55 55 56 57 58 58 58 57 55 54 51 49 47 46 45 44 43 42 42 41 41 41 42 42 43 44 45 46 48 49 50 50 50 50 50 50 50 50 49 48 47 45 43 40 38 35 32 31 30 30 29 27 26 27 29 32 34 37 39 42 46 49 50 50 50 50 49 49 49 49 50 51 53 55 56 56 57 57 57 59 59 60 61 62
46 46 47 47 47 47 48 48 48 48 48 48 48 49 50 51 51 52 53 54 55 56 56 57 58 57 56 53 51 48 46 45 44 43 43 42 42 42 41 41 41 42 43 43 44 45 47 48 49 49 50 50 50 50 51 50 49 47 46 45 43 41 38 36 33 30 28 27 26 24 23 23 24 27 30 33 36 38 41 44 47 49 49 49 49 49 50 50 50 50 51 54 56 57 58 58 59 59 58 58 58 59 60
45 46 46 46 46 47 47 47 47 47 47 47 48 48 49 50 51 52 52 53 55 56 56 57 57 57 55 52 49 46 43 42 42 42 42 42 41 41 41 41 41 41 42 43 45 46 47 48 48 49 49 50 50 50 50 50 48 45 43 42 40 38 35 32 30 28 25 23 21 20 21 22 24 26 29 32 34 37 39 42 45 47 48 49 49 50 50 51 52 52 54 55 57 58 60 60 59 59 60 59 58 57 58
45 45 45 45 46 46 46 46 46 47 46 47 47 48 49 49 50 51 52 53 54 55 56 56 56 56 55 52 48 44 41 40 40 41 42 42 42 41 40 40 41 41 42 43 45 46 47 48 48 48 48 49 50 50 50 49 46 43 40 38 36 33 30 28 27 25 22 20 19 20 21 22 23 25 27 30 33 35 37 40 42 45 47 48 49 50 51 53 54 55 56 57 59 60 61 62 62 61 61 60 59 57 57
44 45 45 45 45 45 46 46 46 46 46 46 47 47 48 49 50 50 51 52 53 54 55 55 55 54 54 51 47 43 40 39 39 40 41 42 42 42 41 40 41 42 43 44 45 47 47 47 47 47 48 49 50 50 49 47 44 40 36 34 32 29 26 24 23 22 20 20 20 20 21 21 22 24 27 29 31 33 35 37 40 42 45 47 49 50 52 53 55 55 56 57 58 60 61 62 63 63 62 61 60 58 57
44 44 44 45 45 45 45 45 45 45 45 45 46 46 47 48 49 50 50 51 52 53 54 55 54 53 51 50 47 42 39 38 38 39 40 41 41 42 42 42 42 42 44 45 46 47 47 46 46 46 47 48 49 49 48 45 41 37 33 31 28 26 23 22 21 20 20 20 20 20 20 20 21 23 26 28 30 31 33 35 37 40 43 45 47 49 51 52 53 53 53 54 55 56 58 60 61 61 61 61 60 59 58
43 43 44 44 44 44 44 45 45 45 45 45 46 46 47 48 48 49 49 50 51 52 53 54 54 53 50 47 44 41 37 36 36 38 39 40 40 39 40 41 42 43 45 46 47 47 46 45 44 45 46 46 47 47 45 42 37 33 29 27 26 24 22 21 20 20 20 20 20 20 20 19 20 22 25 28 29 30 31 32 35 38 41 44 46 48 50 51 51 50 50 51 52 53 54 56 57 58 59 59 59 58 57
43 43 43 43 44 44 44 44 44 44 44 45 45 46 46 47 48 48 49 49 50 51 52 52 52 52 50 46 43 39 35 34 34 36 37 39 39 38 37 38 40 43 45 47 48 48 46 45 43 42 43 44 44 44 42 39 34 30 27 25 24 23 22 21 20 19 19 20 20 20 19 19 19 21 24 27 28 29 29 30 32 35 39 42 45 47 48 49 48 48 48 49 50 51 52 53 54 55 56 57 57 57 56
42 43 43 43 43 43 44 44 44 44 44 44 45 46 46 47 47 48 48 49 50 50 51 51 50 50 49 46 43 39 35 33 33 34 35 37 38 38 36 36 38 41 43 46 48 49 47 45 43 41 40 41 42 42 40 36 32 28 25 24 23 23 22 21 20 19 19 20 21 21 20 19 19 20 23 25 27 27 27 28 30 33 36 40 43 45 46 47 46 46 47 48 49 50 50 51 52 53 53 54 55 55 55
42 42 43 43 43 43 43 43 43 43 43 44 44 45 46 46 47 47 48 48 49 50 50 50 49 48 47 46 43 39 35 32 31 32 34 35 36 36 35 35 36 38 40 42 44 46 47 45 43 41 39 40 40 40 38 35 31 27 25 23 23 22 22 20 19 19 19 20 20 20 20 19 19 19 22 24 26 26 26 27 29 32 35 39 41 43 44 45 45 45 46 47 47 48 49 49 50 51 52 52 53 53 52
42 42 42 42 43 43 43 43 43 43 43 44 44 45 45 46 47 47 47 47 48 48 49 49 48 46 44 44 43 40 36 32 31 31 32 33 33 32 32 33 36 38 39 40 41 42 44 45 44 42 40 39 40 39 37 34 30 26 24 22 22 21 20 19 18 18 19 20 20 20 20 19 18 18 20 23 25 25 26 27 29 32 35 37 39 41 42 42 43 44 44 45 46 46 47 47 48 49 50 51 51 51 50
41 42 42 42 42 42 42 42 42 42 43 43 44 45 45 46 46 46 46 46 47 47 48 47 47 45 42 41 41 39 37 33 31 30 31 32 31 30 28 30 33 37 39 40 41 41 42 43 44 44 41 39 38 38 37 34 30 26 23 21 20 19 18 17 17 17 19 20 21 21 20 19 18 17 19 21 23 24 25 27 29 31 33 35 36 37 38 39 41 42 42 43 44 44 45 45 46 47 48 48 49 48 48
41 41 42 42 42 42 42 42 42 42 43 43 44 44 45 46 46 46 46 46 46 47 47 46 45 43 41 39 38 38 36 34 32 30 29 30 30 29 27 26 28 31 34 37 39 41 42 42 43 44 43 40 37 36 35 33 30 26 22 20 18 17 16 15 15 16 18 19 20 21 20 20 18 17 17 19 21 23 24 26 28 29 30 32 33 34 35 37 38 39 40 41 41 42 43 43 44 45 45 46 46 45 45
40 41 41 42 42 42 42 42 42 42 42 43 43 44 45 45 45 45 45 45 45 46 46 46 44 42 40 39 37 36 35 34 33 32 31 29 29 28 27 25 25 27 29 32 35 38 40 41 42 42 44 42 38 34 32 32 30 27 23 19 17 16 14 13 13 14 16 18 19 19 19 19 18 17 16 17 19 21 23 25 26 27 28 29 30 31 32 34 35 36 37 38 39 40 41 42 43 43 44 43 43 43 43
40 41 41 41 41 41 41 41 42 42 42 43 43 44 45 45 45 44 44 43 44 44 45 45 44 41 39 38 36 35 35 34 33 33 32 31 29 28 27 26 26 27 28 29 31 33 36 39 40 41 42 43 41 36 31 30 31 30 26 20 17 15 13 12 12 13 14 15 16 17 17 18 18 17 17 17 18 20 22 24 25 26 27 28 28 29 30 31 32 33 34 35 36 37 38 40 41 42 42 41 41 41 42
40 40 41 41 41 41 41 41 41 42 42 43 43 44 44 44 44 44 43 43 43 43 43 43 42 41 38 36 35 34 34 34 33 33 33 33 32 30 28 27 27 27 28 28 29 30 32 35 37 38 39 41 41 39 35 32 31 31 28 22 17 14 13 13 13 13 13 13 14 14 15 16 17 18 18 18 18 19 21 23 24 25 25 25 26 26 27 29 29 30 31 32 33 34 36 38 39 40 40 39 39 39 39
40 40 40 40 41 41 41 41 41 42 42 42 43 43 43 43 43 43 43 42 42 42 43 42 42 40 37 35 34 34 34 33 33 32 32 33 33 32 30 29 28 28 28 28 28 29 30 32 34 35 36 37 38 39 37 35 34 32 30 25 18 14 13 13 13 13 13 13 12 12 13 14 15 16 17 18 18 18 19 20 20 21 21 21 22 23 24 25 26 27 28 29 30 31 33 35 37 38 38 37 36 36 36
Wind_Direction
326 325 325 324 323 323 322 322 321 321 321 320 320 319 319 319 318 318 317 316 316 316 315 315 314 314 313 312 311 311 310 309 307 306 305 304 303 302 300 298 297 295 293 292 290 288 287 285 284 282 279 277 275 273 271 270 270 270 269 267 264 260 258 256 255 254 253 253 252 251 251 251 251 251 251 250 250 249 248 247 246 246 245 244 243 242 241 240 239 239 238 237 237 236 235 234 232 232 232 232 232 231 231
325 324 323 323 322 322 322 321 321 321 321 320 320 320 320 319 319 318 318 317 317 317 316 316 315 315 314 314 313 312 311 310 309 308 307 306 305 303 302 300 298 297 295 293 292 290 288 287 286 284 282 279 276 274 272 270 269 268 268 268 266 262 259 256 254 254 253 252 252 251 250 250 250 250 250 250 250 249 248 247 246 246 245 244 243 242 241 240 239 239 238 237 237 236 235 234 233 232 231 231 231 231 231
324 323 323 322 322 322 322 322 322 321 321 321 321 321 321 320 320 320 319 319 318 318 318 317 317 316 316 315 315 314 313 312 311 310 309 308 307 305 304 302 300 299 297 295 293 291 290 289 288 286 284 281 279 276 274 271 269 267 267 266 266 264 261 257 254 253 252 252 251 251 250 249 249 249 249 249 249 249 248 247 246 245 245 244 243 242 241 240 239 239 238 237 236 236 235 234 233 232 231 231 231 231 231
323 323 323 322 322 322 322 323 323 323 323 322 323 322 322 322 322 321 321 321 320 320 320 319 319 318 318 317 317 316 315 314 313 312 311 310 308 307 305 304 303 301 300 298 296 294 292 290 289 287 284 282 281 278 276 273 270 268 266 265 264 263 262 259 256 253 252 251 251 250 250 249 248 248 248 248 248 248 248 247 246 245 245 244 243 242 241 240 239 238 238 237 236 236 235 235 234 233 231 231 230 230 230
323 323 323 323 323 323 324 324 324 324 324 324 324 324 324 324 324 324 323 323 323 323 322 321 321 320 320 319 318 318 317 316 315 314 313 311 310 308 307 306 304 303 301 300 298 296 295 293 291 288 285 283 281 279 277 275 272 269 267 264 263 262 261 260 257 254 252 251 250 250 249 249 248 247 247 247 247 247 247 247 246 245 244 244 243 242 241 240 239 238 237 237 236 236 235 234 234 233 232 231 230 230 230
324 324 324 324 325 325 326 326 326 326 326 326 326 327 326 326 326 326 325 325 325 324 324 323 322 322 321 320 319 319 318 317 316 315 313 312 311 309 308 307 305 304 303 301 300 298 297 295 293 289 286 283 282 280 278 276 274 271 268 265 263 261 260 259 258 256 253 250 249 249 249 248 248 247 246 246 246 246 246 246 246 246 245 244 243 242 241 240 239 238 237 236 236 235 235 234 234 233 232 231 231 230 230
325 325 326 326 326 327 327 327 328 328 328 328 328 328 328 328 328 327 327 326 326 326 325 324 323 323 322 321 320 319 318 317 316 315 313 312 311 310 308 307 306 305 303 302 300 299 298 296 294 290 287 284 282 280 278 276 274 272 269 266 263 261 259 258 257 256 254 251 249 248 247 247 247 247 246 245 245 245 245 245 245 245 245 244 243 242 242 241 239 238 237 236 235 235 234 234 233 233 232 232 231 230 230
326 327 327 327 328 328 328 329 329 329 329 330 330 330 329 329 329 328 328 327 327 326 325 324 324 323 322 321 320 319 318 317 316 314 313 312 311 309 308 307 306 304 303 302 301 299 298 296 294 291 288 286 283 281 278 276 274 272 269 266 264 261 258 257 256 255 254 252 250 248 246 246 246 246 246 245 244 244 244 244 244 244 244 244 243 242 241 241 240 238 237 236 235 235 234 234 233 233 232 232 231 231 230
327 328 328 328 329 329 329 330 330 330 330 331 331 331 330 330 329 329 328 328 327 326 325 325 324 323 322 321 320 319 318 317 315 314 313 311 310 309 307 306 305 304 302 301 300 299 297 295 294 292 289 286 284 281 279 277 274 272 269 266 263 260 258 256 255 254 254 253 251 248 246 245 245 245 245 245 244 243 243 243 243 243 243 243 243 242 241 241 240 239 237 236 235 234 234 233 233 233 232 232 231 231 230
328 328 329 329 330 330 330 331 331 331 331 331 331 331 331 330 330 329 328 328 327 326 325 325 324 323 322 321 320 319 318 317 315 314 312 311 309 308 307 305 304 302 301 300 299 297 296 294 293 291 289 287 284 282 279 277 274 272 269 266 262 259 257 255 254 253 252 252 251 249 247 244 244 243 244 244 244 243 242 242 242 242 242 243 242 242 241 241 240 239 238 236 235 234 233 233 233 232 232 232 231 231 230
328 329 329 330 330 331 331 331 332 332 332 332 332 331 331 330 330 329 328 328 327 326 325 325 324 323 322 321 320 319 318 317 315 314 312 311 309 307 306 304 303 302 300 299 297 296 294 293 291 290 288 286 284 282 279 277 275 272 269 266 262 259 256 254 252 251 251 250 250 249 247 245 243 242 242 242 243 242 242 241 241 241 241 241 241 241 241 240 240 239 238 237 235 234 233 232 232 232 232 231 231 231 230
329 329 330 330 331 331 332 332 332 332 332 332 332 331 331 330 330 329 329 328 327 326 326 325 324 323 322 321 320 319 318 317 315 314 312 311 309 307 306 304 303 301 300 298 296 295 293 291 290 288 286 284 283 281 279 276 274 272 269 266 262 259 256 253 251 249 249 248 248 248 248 246 244 242 241 241 241 242 241 241 241 240 240 240 240 241 241 240 240 239 238 237 236 234 233 232 231 231 231 231 231 230 230
329 330 330 331 332 332 332 333 333 333 332 332 332 331 331 330 330 329 329 328 327 326 326 325 324 323 322 321 320 319 318 317 316 314 313 311 309 308 306 305 303 301 300 298 296 294 293 291 289 287 285 283 281 279 277 275 273 271 268 265 262 259 256 253 250 248 247 246 246 247 247 246 244 242 241 240 240 240 241 241 240 240 239 239 239 240 240 240 239 239 238 237 236 235 233 232 231 231 230 230 230 230 230
330 330 331 332 332 333 333 333 333 333 333 332 332 332 331 331 330 330 329 328 327 326 326 325 324 323 322 321 320 319 318 317 316 315 313 312 310 308 307 305 303 301 300 298 296 295 293 291 289 286 284 282 280 278 276 274 272 270 268 265 262 259 257 254 250 248 246 245 245 245 245 245 245 243 241 239 239 239 240 240 240 239 239 238 238 238 239 239 239 238 238 237 236 235 234 232 231 230 230 230 230 230 229
331 331 332 333 333 333 333 333 333 333 333 332 332 332 331 331 330 329 329 328 327 326 325 324 323 322 321 321 320 319 318 317 316 315 313 312 310 309 307 305 304 302 300 299 297 295 293 291 289 287 285 282 280 278 275 273 271 269 267 265 262 260 257 254 251 249 246 244 244 243 244 244 244 243 242 240 238 238 238 239 239 239 238 238 237 237 238 238 238 238 238 237 236 236 234 233 231 230 229 229 229 229 229
332 332 333 333 333 334 333 333 333 333 333 333 332 332 331 331 330 329 328 327 326 326 325 324 323 322 322 321 320 319 318 317 316 315 313 312 310 309 307 305 304 302 300 299 297 295 293 292 290 288 286 283 281 278 276 273 271 269 267 265 262 260 258 255 252 250 247 245 244 243 243 243 244 243 242 240 238 237 237 237 238 238 238 237 237 236 236 237 237 238 237 237 236 236 235 233 232 230 229 228 228 228 228
333 333 334 334 334 334 334 333 333 333 333 333 332 332 331 330 329 329 328 327 326 325 325 324 323 323 322 321 320 320 319 318 316 315 314 312 311 309 307 306 304 302 301 299 297 295 294 292 290 288 286 284 282 279 277 274 272 270 267 265 263 261 258 256 253 251 248 246 244 243 243 243 243 243 243 241 239 237 236 236 236 237 237 237 236 236 235 236 236 237 237 236 236 235 235 234 232 231 229 228 228 228 228
333 334 334 334 334 334 334 333 333 333 333 332 332 331 331 330 329 328 328 327 326 325 325 324 324 323 323 322 321 320 319 318 317 315 314 313 311 309 308 306 304 303 301 299 297 295 294 292 290 288 286 285 282 280 278 276 273 271 268 266 264 261 259 257 255 252 250 248 246 244 243 243 244 244 243 242 240 238 236 235 235 236 236 236 236 235 235 234 235 235 236 236 236 235 235 234 233 231 230 228 227 227 227
334 334 334 334 334 334 334 334 333 333 333 332 331 331 330 329 329 328 328 327 327 326 326 325 325 324 324 323 322 321 320 319 317 316 315 313 312 310 309 307 305 303 302 300 298 296 294 292 290 288 287 285 283 281 279 277 275 272 270 267 265 263 260 258 256 254 251 249 247 246 244 244 244 244 244 243 241 239 237 235 234 234 235 235 235 235 234 234 234 234 235 235 235 235 234 234 233 232 230 229 227 227 226
334 334 334 334 334 334 334 334 333 333 332 332 331 331 330 330 329 329 328 328 327 327 327 326 326 325 324 323 322 321 320 320 318 317 316 315 313 312 310 308 307 305 303 301 299 297 295 293 291 289 287 285 283 281 280 278 276 274 271 269 266 264 262 259 257 255 253 251 249 247 246 245 245 245 245 244 243 241 238 236 234 233 234 234 234 234 234 233 233 233 233 234 235 234 234 233 233 232 231 229 228 227 226
334 334 334 334 334 334 334 334 333 333 332 332 331 331 330 330 329 329 329 328 328 328 327 327 326 325 325 324 323 322 321 320 319 318 317 316 315 313 311 310 308 306 304 302 300 298 296 294 292 289 287 285 283 282 280 278 277 275 273 270 268 266 263 261 259 257 254 252 250 249 248 247 246 246 246 246 245 243 241 238 235 233 233 233 234 234 233 233 232 232 232 233 234 234 234 233 233 232 231 230 228 227 226
334 334 334 334 334 334 334 334 333 333 332 332 331 331 330 330 330 329 329 329 329 328 328 327 327 326 325 324 324 323 322 321 320 319 318 317 316 314 313 311 310 308 306 304 302 300 298 296 293 291 289 286 284 282 280 279 277 275 274 272 270 268 265 263 261 258 256 254 252 250 249 248 247 247 247 247 247 246 244 241 238 235 233 233 233 233 233 233 232 232 231 232 232 233 233 233 232 232 231 230 229 227 226
335 335 335 335 335 334 334 334 333 333 332 332 331 331 331 330 330 330 329 329 329 329 328 328 327 326 326 325 324 324 323 322 321 320 319 318 317 315 314 313 311 309 308 306 304 302 300 297 295 293 290 288 286 283 281 279 277 276 274 272 271 269 267 265 262 260 258 256 253 251 250 249 249 248 248 248 249 248 247 244 241 238 235 233 233 233 233 233 232 231 231 231 232 232 232 232 232 232 231 230 229 228 226
335 335 335 335 335 335 334 334 333 333 332 332 332 331 331 330 330 330 330 329 329 329 328 328 327 327 326 326 325 324 323 322 321 320 319 318 317 316 315 314 312 311 309 307 305 303 301 299 297 295 293 290 287 285 283 280 278 276 274 272 271 269 268 266 264 262 260 257 255 253 251 250 249 249 249 249 250 250 249 248 245 241 237 235 234 233 233 233 232 232 231 231 231 231 232 232 232 231 231 230 230 228 227
335 335 335 335 335 335 334 334 333 333 332 332 332 331 331 331 330 330 330 329 329 329 328 328 328 327 327 326 325 324 324 323 322 321 320 319 318 317 315 314 313 311 310 308 307 305 303 301 299 297 295 292 290 287 284 282 279 277 275 273 271 269 268 266 265 263 261 259 257 255 253 251 250 250 250 250 250 251 251 250 248 245 241 237 235 234 234 233 233 232 231 231 231 231 231 231 231 231 231 230 229 229 228
336 336 335 335 335 335 334 334 333 333 332 332 332 331 331 331 330 330 330 329 329 329 328 328 327 327 327 326 325 324 323 323 322 321 320 319 318 317 316 315 314 312 311 309 308 306 304 303 301 299 296 294 292 289 286 283 281 278 276 274 271 269 267 266 264 263 262 260 258 256 254 253 251 251 250 250 251 251 252 251 250 248 244 240 237 235 235 234 234 233 232 232 231 231 230 230 230 230 230 230 229 229 228
336 335 335 335 335 334 334 333 333 333 332 332 332 331 331 331 330 330 330 329 329 329 328 328 327 327 326 326 325 324 323 323 322 321 320 319 318 317 316 315 314 313 312 310 309 307 305 304 302 300 298 296 293 291 288 285 282 280 277 275 272 270 267 265 264 262 261 260 259 257 255 254 252 251 251 251 251 252 252 252 252 250 248 244 240 237 236 235 234 234 233 233 232 231 230 230 230 230 230 230 229 228 228
336 335 335 335 334 334 334 333 333 332 332 332 332 331 331 331 331 330 330 329 329 329 328 328 328 327 326 326 325 324 323 322 322 321 320 319 318 317 316 315 314 313 312 311 310 308 306 305 303 301 299 297 295 293 290 287 284 281 278 276 273 270 268 266 263 262 260 259 258 257 256 254 253 252 251 251 251 252 252 253 253 251 250 247 243 239 237 236 235 235 234 234 233 232 231 230 230 229 229 229 229 228 228
335 335 335 335 334 334 333 333 333 332 332 332 332 331 331 331 331 330 330 330 329 329 329 328 328 327 326 326 325 324 323 322 322 321 320 319 318 318 317 316 315 314 313 312 310 309 308 306 304 303 301 299 296 294 292 289 286 283 280 277 274 271 269 266 264 261 259 258 257 256 255 254 253 252 251 251 251 252 252 253 253 252 251 249 245 242 239 237 236 236 235 234 234 233 232 231 230 229 229 229 229 228 228
335 335 335 334 334 333 333 333 332 332 332 332 332 331 331 331 331 330 330 330 329 329 329 328 328 327 326 326 325 324 323 322 322 321 320 319 319 318 317 316 316 314 314 313 312 310 309 308 306 305 303 301 299 296 294 291 288 285 282 279 276 273 270 267 264 262 259 257 256 255 254 253 253 252 251 251 251 251 252 253 253 253 252 250 247 244 240 238 237 237 236 235 234 233 233 231 230 230 229 229 228 228 227
335 334 334 334 333 333 333 332 332 332 331 331 332 331 331 331 331 330 330 330 330 329 329 328 328 327 326 326 325 324 323 322 322 321 320 320 319 318 318 317 316 315 314 314 313 312 311 310 309 307 306 304 302 300 297 294 291 288 284 281 278 275 271 268 265 263 260 257 255 254 253 252 251 251 251 250 250 250 251 252 253 253 252 250 248 245 242 240 238 238 237 236 235 234 233 232 231 230 229 229 228 227 227
334 334 333 333 333 332 332 332 332 332 331 331 331 331 331 331 331 330 330 330 330 329 329 328 328 327 327 326 325 324 324 323 322 321 320 320 319 319 318 318 317 316 316 315 314 314 313 312 311 310 309 308 306 304 301 299 295 292 288 284 280 277 273 270 267 264 261 258 255 253 252 251 250 250 249 249 249 249 250 251 252 252 252 251 249 246 243 240 239 238 238 237 237 236 235 233 232 231 230 229 228 227 227
334 333 333 333 332 332 332 332 332 332 331 331 331 331 331 331 331 330 330 330 330 329 329 328 328 327 327 326 325 324 324 323 322 321 321 320 320 319 319 318 318 317 317 316 316 315 315 314 314 313 312 311 310 308 306 303 300 296 292 288 284 280 276 272 269 266 262 259 256 254 252 250 249 248 248 248 248 248 248 249 250 251 251 250 248 246 243 240 239 238 238 238 237 237 236 235 233 232 230 229 228 227 227
333 333 332 332 332 331 331 332 332 332 331 331 331 331 331 331 330 330 330 330 330 329 329 329 328 328 327 326 326 325 324 323 322 322 321 321 320 320 320 319 319 318 318 317 317 317 317 317 316 316 315 314 312 311 309 306 303 300 296 292 288 283 279 275 271 268 264 261 258 255 252 250 249 247 247 246 246 246 247 247 248 249 250 250 248 246 243 240 238 237 238 238 238 237 236 236 234 232 231 230 229 228 227
332 332 332 331 331 331 331 332 332 332 332 331 331 331 331 331 330 330 330 330 330 329 329 329 328 328 327 326 326 325 324 323 322 322 321 321 321 321 321 320 320 319 319 318 318 318 318 319 319 318 317 316 314 312 310 307 305 302 299 295 291 287 282 278 274 270 266 263 259 256 254 251 249 247 246 245 245 245 245 245 247 248 249 249 248 246 243 239 237 236 236 237 237 237 237 236 235 234 232 230 229 228 227
332 331 331 331 331 331 331 332 332 332 332 331 331 331 331 330 330 330 330 330 330 329 329 329 328 328 327 327 326 325 324 323 323 322 322 322 322 322 322 321 320 320 320 319 319 320 320 321 321 320 318 316 315 313 311 308 306 304 301 298 294 290 286 281 276 272 268 265 261 258 255 253 251 248 246 245 244 243 243 244 245 246 247 248 247 245 242 238 235 233 234 235 236 236 236 237 236 235 233 231 229 228 227
331 331 331 331 331 331 331 332 332 332 332 331 331 331 331 330 330 330 330 330 330 330 329 329 328 328 328 327 326 325 324 324 323 323 323 323 323 322 322 321 321 321 320 321 321 322 322 322 322 321 319 317 315 314 312 310 309 307 304 301 297 293 289 284 279 275 270 266 262 259 256 254 252 250 247 245 244 243 242 242 243 244 245 246 245 243 240 235 231 230 230 232 233 234 234 235 236 236 235 232 229 228 227
331 330 330 330 330 331 332 332 332 332 332 332 331 331 331 330 330 330 330 330 330 330 330 329 329 329 328 327 326 326 325 324 324 323 323 323 323 323 322 322 322 322 322 322 323 323 324 323 323 322 320 319 317 315 314 313 311 310 308 305 300 296 291 287 282 277 273 268 264 260 257 255 253 251 249 247 245 243 242 242 241 242 242 243 242 240 236 232 228 227 230 231 232 233 233 232 233 235 237 233 230 228 227
330 330 330 330 331 331 332 332 332 332 332 332 331 331 331 331 330 330 331 331 330 330 330 330 329 329 328 328 327 326 325 325 324 324 324 324 324 323 323 322 322 323 323 324 324 324 324 324 323 322 321 320 319 318 317 316 315 313 311 308 303 298 294 289 285 280 276 270 265 261 258 255 253 251 249 248 246 244 243 241 241 240 240 240 238 236 232 233 230 229 231 233 233 233 233 232 232 233 236 235 232 229 228
330 330 330 330 331 331 331 332 332 332 332 332 331 331 331 331 331 331 331 331 331 331 331 330 330 329 329 328 327 326 326 325 325 324 324 324 324 323 323 323 323 324 325 325 325 325 325 325 324 324 323 322 321 320 320 319 318 317 314 310 306 301 296 292 287 283 278 273 267 262 258 255 253 251 250 248 246 245 243 242 240 239 238 237 234 232 232 234 234 232 232 233 234 233 233 233 233 233 235 236 234 231 229
329 329 330 330 331 331 331 332 332 332 332 332 332 331 331 331 331 331 331 331 331 331 331 331 330 330 329 328 328 327 326 325 325 325 324 324 324 324 323 324 324 325 325 325 325 325 325 326 326 326 325 325 324 323 322 322 321 319 317 313 309 304 300 295 290 285 280 274 269 264 259 256 253 252 250 248 246 244 242 239 238 237 236 234 231 229 230 230 232 232 230 232 233 233 233 232 232 233 235 236 235 232 230
329 329 330 330 331 331 331 332 332 332 332 332 332 331 331 331 331 331 331 331 331 331 331 331 331 331 330 329 328 327 326 325 325 325 325 324 324 324 324 325 325 326 326 326 326 326 327 327 328 328 327 327 326 325 325 325 324 322 320 317 313 309 304 298 292 286 280 275 269 264 260 257 254 252 250 248 246 244 240 235 233 234 234 232 229 226 224 223 226 229 229 230 231 232 232 231 231 232 234 236 235 233 230
329 329 330 330 331 331 331 331 332 332 332 332 332 332 332 332 332 332 332 332 331 331 331 332 332 331 330 330 329 327 326 326 325 325 324 324 324 324 325 325 326 326 326 327 327 328 328 329 329 330 329 329 328 328 327 327 326 324 322 320 316 313 308 302 295 288 280 274 269 264 261 257 254 251 248 246 244 242 239 234 230 229 230 229 227 223 221 220 223 227 229 230 230 229 230 230 230 231 233 234 235 234 231
329 329 330 330 331 331 331 331 332 332 332 332 332 332 332 332 332 332 332 332 332 332 331 332 332 332 331 330 329 328 327 326 325 325 324 324 325 325 326 326 326 326 327 328 328 329 330 331 331 331 331 331 331 330 330 330 328 327 324 321 318 315 311 306 298 290 280 273 267 263 260 256 251 246 243 240 239 239 237 233 229 227 227 227 225 222 221 221 224 227 227 227 226 226 227 227 229 230 231 232 233 233 230
329 329 330 330 331 331 331 331 331 331 332 332 332 332 332 332 332 332 332 332 332 332 332 332 332 332 332 331 329 328 327 326 325 324 324 325 325 326 326 326 326 326 327 329 330 331 332 332 333 333 333 333 333 333 333 332 331 328 325 322 319 316 313 308 301 291 280 271 264 259 256 251 246 240 236 234 233 233 233 231 228 225 224 224 222 221 220 221 223 224 222 222 222 222 223 225 227 229 230 230 231 231 230
329 329 330 330 331 331 331 331 331 331 331 332 332 332 332 332 332 332 332 332 332 332 332 332 332 332 332 331 330 328 327 325 324 324 324 325 326 326 326 325 326 327 328 329 331 332 334 334 335 335 335 335 335 335 335 334 332 329 324 321 319 316 313 309 302 292 280 269 260 253 248 244 240 236 232 229 227 227 227 226 224 222 221 220 219 218 216 216 217 217 217 218 219 220 221 223 225 227 229 231 231 231 231
328 329 330 330 330 331 331 331 331 331 331 332 332 332 332 332 332 332 332 332 332 332 332 333 333 333 332 332 330 328 326 325 324 324 325 325 326 326 325 325 325 327 328 330 332 334 336 337 337 337 337 337 337 337 337 336 333 329 324 320 317 315 313 309 302 292 279 267 256 248 244 241 237 233 230 227 225 223 223 222 220 219 219 218 218 216 215 213 213 214 215 216 217 217 219 220 222 224 227 229 230 231 230
328 329 330 330 330 330 330 330 331 331 331 332 332 332 332 332 332 332 332 332 332 332 333 333 333 333 332 332 330 329 327 325 324 324 325 325 326 325 325 324 325 326 328 331 334 336 338 339 339 339 339 339 339 338 338 337 334 330 324 319 315 313 310 306 298 288 276 264 254 249 246 243 239 234 229 226 223 221 219 218 217 217 217 217 217 216 215 215 215 215 216 216 216 216 217 219 220 222 224 225 227 228 229
328 329 329 330 330 330 330 330 330 331 331 331 332 332 332 333 333 333 333 333 333 333 333 333 333 333 333 332 331 329 328 326 325 325 325 326 326 325 325 325 325 326 329 332 335 338 339 340 340 340 340 340 339 339 339 338 335 330 323 317 313 310 307 301 294 285 273 262 256 253 251 248 242 235 229 224 221 219 217 215 215 214 215 216 217 217 217 217 217 218 218 218 218 218 218 219 220 222 223 224 225 226 227
328 329 329 330 330 330 330 330 330 330 331 331 332 332 332 333 333 333 333 333 333 333 334 334 333 333 333 332 331 330 328 327 326 326 326 327 327 327 326 326 326 327 329 333 337 339 340 340 341 341 341 340 340 340 340 339 335 330 322 315 310 307 303 297 292 284 272 261 256 255 254 251 244 236 228 223 219 217 215 214 214 213 214 215 216 217 218 219 220 221 221 221 221 221 221 221 222 223 224 225 226 226 227
328 329 329 329 330 330 330 330 330 330 331 331 332 332 332 333 333 333 333 333 333 334 334 334 333 333 333 332 331 330 328 327 327 327 328 328 328 328 328 329 329 331 333 335 337 339 340 340 341 342 342 341 340 341 341 340 336 329 321 314 309 306 302 297 292 284 272 263 260 258 255 252 245 235 227 221 218 216 215 215 214 214 214 215 216 217 218 220 221 221 222 222 223 223 223 223 224 224 225 226 227 227 227
328 329 329 329 329 329 330 330 330 330 330 331 331 332 332 333 333 333 333 333 334 334 334 334 334 333 333 332 331 330 328 328 328 329 330 329 328 328 329 333 336 339 338 336 336 337 339 340 341 342 342 341 341 342 343 342 337 329 321 315 311 307 304 300 295 288 277 270 268 267 263 256 247 236 226 220 217 215 215 215 215 215 215 215 216 217 218 219 220 221 221 222 223 223 224 224 224 224 225 226 227 227 227
328 328 329 329 329 329 330 330 330 330 330 331 331 331 332 332 332 333 333 334 334 335 335 334 334 333 333 332 331 330 328 328 329 330 331 330 330 329 332 338 343 343 340 338 336 336 338 339 339 341 343 343 343 344 346 344 339 331 322 316 312 309 306 303 299 294 288 282 279 276 273 263 251 238 226 220 217 215 215 215 216 216 217 216 216 217 218 218 219 220 221 222 222 223 223 223 224 224 225 226 227 228 228
328 328 328 329 329 329 330 330 330 330 330 330 331 331 331 332 332 333 333 334 335 335 335 334 334 333 332 332 330 329 328 328 329 330 331 333 332 333 335 340 343 342 340 338 336 335 336 337 337 339 342 344 344 345 347 347 343 335 325 317 313 310 308 306 302 297 292 283 278 278 278 270 257 242 229 222 218 216 216 215 216 217 218 217 217 217 218 218 218 219 220 221 222 223 223 223 223 224 224 226 227 228 228
328 328 328 329 329 329 329 330 329 330 330 330 330 331 331 332 332 333 333 334 335 335 335 335 334 332 331 331 330 329 328 328 328 330 332 334 335 335 337 340 342 341 339 338 336 335 336 337 337 337 341 345 346 347 349 350 347 340 328 319 314 312 311 309 305 298 291 283 278 278 281 277 265 249 234 226 222 220 219 218 219 219 220 219 218 218 218 218 219 219 220 222 223 223 224 224 223 223 224 225 226 228 228
327 328 328 329 329 329 329 329 329 329 329 330 330 330 331 332 332 333 334 334 335 336 336 336 334 332 330 329 329 328 327 327 327 329 332 335 336 337 339 342 342 340 338 337 336 336 338 338 338 338 340 345 347 349 350 352 352 345 333 323 317 315 315 313 307 300 293 285 283 284 286 283 273 257 241 232 227 224 224 223 223 223 223 221 221 220 220 220 220 221 221 222 223 224 224 224 224 223 224 224 226 227 229
327 328 328 329 329 329 329 329 329 329 329 329 330 330 331 331 332 333 334 335 336 336 336 336 334 332 330 328 327 327 326 326 327 329 331 334 335 337 339 342 341 339 336 335 335 336 338 340 341 341 340 343 348 352 353 355 354 350 341 329 321 318 317 315 309 302 297 289 286 286 288 286 278 265 250 239 232 229 228 227 227 227 226 225 225 224 223 223 222 222 223 223 224 224 224 224 223 223 223 224 225 227 228
327 328 328 328 329 329 329 329 329 329 329 329 329 330 331 331 332 333 334 335 335 336 336 336 335 332 330 327 326 326 326 327 327 328 329 331 334 337 339 339 338 335 334 334 335 337 339 341 342 342 341 342 347 354 358 358 357 356 350 338 326 319 319 316 309 303 299 294 288 284 286 286 281 271 258 247 239 234 232 231 231 231 231 230 230 228 227 225 224 224 224 224 224 224 224 223 223 222 222 223 224 225 226
327 328 328 328 328 329 328 328 328 328 329 329 329 330 331 331 332 333 334 334 335 336 337 337 335 333 329 326 325 324 326 327 328 329 329 330 332 337 340 339 337 335 333 334 335 337 339 340 342 343 344 343 346 351 359 360 360 360 358 348 332 321 319 317 310 302 298 295 290 285 283 283 280 274 265 255 246 240 237 236 236 236 237 236 234 232 229 227 226 225 224 224 223 223 223 223 222 221 221 222 222 224 225
327 328 328 328 328 328 328 328 328 328 328 329 329 330 330 331 332 332 333 334 335 337 337 337 336 333 329 326 323 323 324 326 328 330 330 330 332 335 339 339 338 335 334 334 335 337 338 339 341 343 345 345 345 347 352 356 359 1 4 359 344 327 321 318 311 302 295 291 287 283 279 278 277 273 267 259 252 246 242 241 242 243 243 241 239 236 233 230 228 226 224 223 223 223 223 222 221 221 220 221 222 223 225
327 328 328 328 328 328 328 328 328 328 328 329 329 330 330 331 331 332 333 334 335 336 337 337 337 334 330 326 323 321 322 325 328 330 330 330 331 333 336 337 337 335 333 333 334 336 337 338 340 342 344 345 346 347 348 350 353 357 3 6 360 342 327 320 313 304 297 291 284 279 274 271 269 267 264 260 255 251 248 247 248 248 248 246 243 240 237 234 230 227 225 223 222 222 222 221 220 219 219 218 219 220 222